Terug naar catalogus

INTELSAT 33E DEB

ActiefMEO
NORAD 64408·DEBRIS· XX

Gelanceerd Aug 24, 2016 vanaf Guiana Space Centre

Loading…

Volgende Passages (komende 24 uur)

TLE

VersSource: Space-Track

Epoch: Sep 13, 2026, 17:28 UTC

1 64408U 16053AN  26256.72846442 -.00000062  00000-0  00000-0 0  9994
2 64408   3.1600  85.2169 0760725   1.6991 358.9341  1.03213769  6997

Volg INTELSAT 33E DEB in realtime met AllMySat

Download on the App Store